Terminal Aerodrome Forecast
Issued by NWS

Home | Current Version | Previous Version | Text Only | Print | Product List | Glossary Off
Versions: 1 2 3 4 5 6 7 8 9 10 11 12 13 14 15 16 17 18 19 20 21 22

924
FTUS43 KABR 071319 AAA
TAFATY
TAF AMD
KATY 071319Z 0713/0812 30022G28KT P6SM OVC040
     FM071700 29019G28KT P6SM BKN020
     FM072100 29021G29KT P6SM BKN035
     FM080000 29019G27KT P6SM BKN025
     FM080300 30019G28KT P6SM BKN015
     FM080600 30019G28KT P6SM BKN020
     FM080900 30018G27KT P6SM BKN035=

USA.gov is the U.S. government's official web portal to all federal, state and local government web resources and services.